Terminal Aerodrome Forecast
Issued by NWS Quad Cities IA IL

Home | Current Version | Previous Version | Text Only | Print | Product List | Glossary On
Versions: 1 2 3 4 5 6 7 8 9 10 11 12 13 14 15 16 17 18 19 20 21 22 23 24 25 26 27 28 29 30 31 32 33 34 35 36 37 38 39 40
000
FTUS43 KDVN 290603 AAB
TAFDBQ
TAF AMD
KDBQ 290603Z 2906/3006 17005KT 3SM -RA BR BKN008
     FM290800 VRB03KT 2SM BR SCT007 OVC012
      TEMPO 2910/2914 1SM BR OVC007
     FM291600 35005KT P6SM BKN025
     FM292200 01006KT P6SM SCT040=

USA.gov is the U.S. government's official web portal to all federal, state and local government web resources and services.